Location: Jackson Park
(37.2862°N, 79.9123°W)
Time: 10:34:08
(UTC+00:00)

Vanguard 1 Rocket - Visible Passes

Search period start: 15 May 2026 00:00
Search period end: 25 May 2026 00:00
Orbit: 655 x 4212 km, 34.3° (Epoch: 14 May)

Date Brightness Start Highest point End Pass type
(mag) Time Alt. Az. Time Alt. Az. Time Alt. Az.
15 May 10.6 01:37:45 10° W 01:55:41 58° SSW 02:14:33 22° SE visible
15 May 11.1 04:08:24 10° W 04:26:13 28° SW 04:31:40 26° SSW visible
16 May 10.4 00:24:31 10° W 00:40:00 68° SSW 01:05:19 10° ESE visible
16 May 10.9 02:52:31 10° W 03:10:56 40° SW 03:22:54 28° S visible
16 May 11.6 05:32:56 10° WSW 05:40:02 12° SW 05:40:02 12° SW visible
17 May 10.7 01:38:17 10° W 01:55:23 52° SSW 02:14:11 20° SSE visible
17 May 11.3 04:10:06 10° W 04:25:37 23° SW 04:31:19 21° SSW visible
18 May 10.4 00:25:02 10° W 00:39:55 62° SSW 01:04:32 10° SE visible
18 May 11.1 02:53:26 10° W 03:10:28 33° SW 03:22:39 23° S visible
19 May 10.8 01:38:56 10° W 01:55:07 45° SSW 02:14:02 17° SSE visible
19 May 11.4 04:12:51 10° WSW 04:25:09 17° SW 04:31:11 15° SSW visible
20 May 10.5 00:25:36 10° W 00:39:51 55° SSW 01:03:31 10° SE visible
20 May 11.2 02:54:44 10° W 03:10:06 27° SW 03:22:37 18° S visible
21 May 10.9 01:39:46 10° W 01:54:54 38° SW 02:14:05 14° SSE visible
21 May 11.6 04:18:29 10° WSW 04:24:52 12° SW 04:31:15 10° SSW visible
22 May 10.6 00:26:16 10° W 00:39:50 48° SSW 01:02:15 10° SE visible
22 May 11.4 02:56:41 10° W 03:09:50 21° SW 03:22:46 13° S visible
23 May 11.1 01:40:53 10° W 01:54:46 31° SW 02:14:20 10° SSE visible
24 May 10.7 00:27:04 10° W 00:39:51 40° SSW 01:00:39 10° SSE visible
24 May 11.5 02:59:55 10° WSW 03:09:44 15° SW 03:21:15 10° SSW visible
